CST,Max TemperatureF,Mean TemperatureF,Min TemperatureF,Max Dew PointF,MeanDew PointF,Min DewpointF,Max Humidity, Mean Humidity, Min Humidity, Max Sea Level PressureIn, Mean Sea Level PressureIn, Min Sea Level PressureIn, Max VisibilityMiles, Mean VisibilityMiles, Min VisibilityMiles, Max Wind SpeedMPH, Mean Wind SpeedMPH, Max Gust SpeedMPH,PrecipitationIn, CloudCover, Events, WindDirDegrees
2013-2-1,28,13,-2,18,5,-11,72,64,53,30.45,30.27,30.09,10,10,10,22,7,26,0.00,3,,193
2013-2-2,35,30,24,27,21,18,86,71,64,30.23,30.14,30.07,10,10,5,13,5,17,0.00,6,,254
2013-2-3,42,33,24,28,23,14,70,62,46,30.25,30.08,29.82,10,10,10,15,8,23,0.00,2,,233
2013-2-4,37,30,24,28,22,19,80,72,60,30.03,29.94,29.78,10,10,10,23,6,29,0.00,5,,12
2013-2-5,51,38,26,34,26,21,86,70,43,30.10,29.98,29.86,10,8,5,13,5,18,0.00,2,,278
2013-2-6,55,40,26,37,30,21,86,69,44,30.11,29.98,29.87,10,10,10,21,5,25,0.00,2,,143
2013-2-7,44,37,30,39,30,23,93,79,70,30.25,30.04,29.87,10,7,0,17,8,24,0.21,7,Fog-Rain,353
2013-2-8,33,30,26,25,23,21,86,79,70,30.37,30.29,30.20,10,9,5,20,8,23,0.00,7,,111
2013-2-9,48,38,28,34,29,25,86,73,57,30.22,29.99,29.72,10,8,5,20,13,25,0.00,4,Rain,150
2013-2-10,48,40,32,41,31,21,87,75,57,29.81,29.52,29.32,10,8,2,33,19,41,0.01,8,Rain,213
2013-2-11,39,31,23,25,21,18,80,65,52,30.18,30.07,29.83,10,10,10,26,15,34,0.00,3,,307
2013-2-12,48,34,19,27,20,14,86,65,30,30.18,30.04,29.92,10,9,5,16,3,21,0.00,2,,231
2013-2-13,53,37,21,28,23,16,86,62,28,29.93,29.83,29.75,10,10,10,14,4,17,0.00,2,,243
2013-2-14,46,37,26,30,25,12,81,62,34,30.26,30.01,29.80,10,10,2,24,9,31,0.00,4,Snow,315
2013-2-15,33,24,15,19,13,9,86,63,35,30.39,30.34,30.27,10,10,10,14,7,21,0.00,4,,346
2013-2-16,33,22,12,21,15,9,86,68,38,30.35,30.19,30.04,10,10,7,14,5,16,0.00,5,,193
2013-2-17,55,40,24,28,22,18,74,56,26,30.04,29.86,29.60,10,10,10,20,7,25,0.00,2,,149
2013-2-18,42,32,21,30,22,10,86,68,55,30.07,29.78,29.55,10,10,0,25,11,37,0.00,4,Snow,342
2013-2-19,28,19,10,12,1,-8,68,51,21,30.37,30.27,30.08,10,10,10,21,13,30,0.00,2,,331
2013-2-20,26,16,5,5,0,-2,72,51,29,30.40,30.33,30.23,10,10,10,14,6,17,0.00,3,,84
2013-2-21,24,22,21,19,13,5,86,71,46,30.26,30.01,29.81,10,5,0,21,12,28,0.06,7,Snow,77
2013-2-22,24,15,6,19,12,1,86,74,59,30.05,29.95,29.81,10,9,2,16,6,18,0.00,4,Snow,296
2013-2-23,33,16,0,21,9,-8,85,73,60,30.04,29.96,29.89,10,9,5,12,3,,0.00,1,,188
2013-2-24,39,24,10,27,19,7,86,72,56,30.07,30.00,29.93,10,8,2,8,2,,0.00,4,,96
2013-2-25,37,34,30,28,27,25,86,78,70,30.07,30.00,29.88,10,6,3,15,8,18,0.00,4,Snow,27
2013-2-26,32,31,30,27,25,25,86,81,80,29.89,29.81,29.74,7,3,0,20,14,26,0.02,7,Snow,6
2013-2-27,37,32,26,25,22,19,80,70,56,30.08,29.96,29.88,10,8,3,21,13,29,0.00,5,,332
2013-2-28,32,29,26,23,21,19,80,72,69,30.23,30.18,30.08,10,10,7,18,13,28,0.00,8,,337